Time,TemperatureF,DewpointF,PressureIn,WindDirection,WindDirectionDegrees,WindSpeedMPH,WindSpeedGustMPH,Humidity,HourlyPrecipIn,Conditions,Clouds,dailyrainin,SoftwareType,DateUTC
2013-05-14 00:00:00,39.4,16.6,0.00,East,90,4.6,-999.0,39,0.00,,,-99.99,,2013-05-14 08:00:00,
2013-05-14 00:05:00,39.4,14.6,0.00,East,88,3.9,-999.0,35,0.00,,,-99.99,,2013-05-14 08:05:00,
2013-05-14 00:10:00,39.5,15.1,0.00,ESE,108,2.0,-999.0,36,0.00,,,-99.99,,2013-05-14 08:10:00,
2013-05-14 00:15:00,39.3,14.4,0.00,NE,35,0.5,-999.0,35,0.00,,,-99.99,,2013-05-14 08:15:00,
2013-05-14 00:20:00,39.1,14.9,0.00,East,83,0.0,-999.0,36,0.00,,,-99.99,,2013-05-14 08:20:00,
2013-05-14 00:25:00,39.2,14.3,0.00,ESE,119,3.0,-999.0,35,0.00,,,-99.99,,2013-05-14 08:25:00,
2013-05-14 00:30:00,39.5,14.0,0.00,ESE,118,4.7,-999.0,34,0.00,,,-99.99,,2013-05-14 08:30:00,
2013-05-14 00:35:00,39.5,13.0,0.00,East,91,3.5,-999.0,33,0.00,,,-99.99,,2013-05-14 08:35:00,
2013-05-14 00:40:00,39.1,13.9,0.00,NE,37,2.5,-999.0,35,0.00,,,-99.99,,2013-05-14 08:40:00,
2013-05-14 00:45:00,39.1,12.4,0.00,NE,55,3.6,-999.0,33,0.00,,,-99.99,,2013-05-14 08:45:00,
2013-05-14 00:50:00,39.1,13.5,0.00,ESE,102,3.4,-999.0,34,0.00,,,-99.99,,2013-05-14 08:50:00,
2013-05-14 00:55:00,38.8,13.1,0.00,East,83,5.0,-999.0,34,0.00,,,-99.99,,2013-05-14 08:55:00,
2013-05-14 01:00:00,38.8,13.2,0.00,NE,49,2.9,-999.0,34,0.00,,,-99.99,,2013-05-14 09:00:00,
2013-05-14 01:05:00,38.8,12.7,0.00,East,85,2.2,-999.0,33,0.00,,,-99.99,,2013-05-14 09:05:00,
2013-05-14 01:10:00,38.8,11.2,0.00,ESE,106,3.4,-999.0,31,0.00,,,-99.99,,2013-05-14 09:10:00,
2013-05-14 01:15:00,38.3,13.7,0.00,ENE,68,4.1,-999.0,36,0.00,,,-99.99,,2013-05-14 09:15:00,
2013-05-14 01:20:00,37.9,13.6,0.00,NNE,25,4.1,-999.0,36,0.00,,,-99.99,,2013-05-14 09:20:00,
2013-05-14 01:25:00,38.5,11.9,0.00,East,91,3.5,-999.0,32,0.00,,,-99.99,,2013-05-14 09:25:00,
2013-05-14 01:30:00,38.5,10.3,0.00,East,98,9.8,-999.0,30,0.00,,,-99.99,,2013-05-14 09:30:00,
2013-05-14 01:35:00,38.2,11.1,0.00,East,90,7.2,-999.0,32,0.00,,,-99.99,,2013-05-14 09:35:00,
2013-05-14 01:40:00,37.7,11.7,0.00,East,86,11.1,-999.0,33,0.00,,,-99.99,,2013-05-14 09:40:00,
2013-05-14 01:45:00,37.4,11.7,0.00,East,83,10.8,-999.0,34,0.00,,,-99.99,,2013-05-14 09:45:00,
2013-05-14 01:50:00,37.0,11.3,0.00,ENE,74,10.3,-999.0,34,0.00,,,-99.99,,2013-05-14 09:50:00,
2013-05-14 01:55:00,38.0,10.2,0.00,ESE,103,12.1,-999.0,31,0.00,,,-99.99,,2013-05-14 09:55:00,
2013-05-14 02:00:00,38.1,10.4,0.00,East,86,8.7,-999.0,31,0.00,,,-99.99,,2013-05-14 10:00:00,
2013-05-14 02:05:00,38.1,9.8,0.00,East,100,10.6,-999.0,30,0.00,,,-99.99,,2013-05-14 10:05:00,
2013-05-14 02:10:00,38.4,9.0,0.00,East,95,10.1,-999.0,29,0.00,,,-99.99,,2013-05-14 10:10:00,
2013-05-14 02:15:00,38.2,10.8,0.00,ENE,70,9.4,-999.0,31,0.00,,,-99.99,,2013-05-14 10:15:00,
2013-05-14 02:20:00,38.2,9.7,0.00,East,81,10.8,-999.0,30,0.00,,,-99.99,,2013-05-14 10:20:00,
2013-05-14 02:25:00,38.0,9.3,0.00,ENE,77,12.3,-999.0,29,0.00,,,-99.99,,2013-05-14 10:25:00,
2013-05-14 02:30:00,37.8,9.8,0.00,ESE,112,8.5,-999.0,30,0.00,,,-99.99,,2013-05-14 10:30:00,
2013-05-14 02:35:00,37.5,9.6,0.00,ESE,106,13.0,-999.0,31,0.00,,,-99.99,,2013-05-14 10:35:00,
2013-05-14 02:40:00,37.3,9.8,0.00,East,93,16.0,-999.0,31,0.00,,,-99.99,,2013-05-14 10:40:00,
2013-05-14 02:45:00,37.5,9.9,0.00,East,91,12.3,-999.0,31,0.00,,,-99.99,,2013-05-14 10:45:00,
2013-05-14 02:50:00,37.4,9.8,0.00,ESE,106,14.2,-999.0,31,0.00,,,-99.99,,2013-05-14 10:50:00,
2013-05-14 02:55:00,37.2,10.0,0.00,East,82,14.2,-999.0,31,0.00,,,-99.99,,2013-05-14 10:55:00,
2013-05-14 03:00:00,37.2,10.5,0.00,East,88,11.5,-999.0,32,0.00,,,-99.99,,2013-05-14 11:00:00,
2013-05-14 03:05:00,37.3,10.1,0.00,East,86,11.3,-999.0,31,0.00,,,-99.99,,2013-05-14 11:05:00,
2013-05-14 03:10:00,37.6,10.0,0.00,East,84,11.4,-999.0,31,0.00,,,-99.99,,2013-05-14 11:10:00,
2013-05-14 03:15:00,37.7,10.2,0.00,East,90,11.2,-999.0,31,0.00,,,-99.99,,2013-05-14 11:15:00,
2013-05-14 03:20:00,37.2,10.6,0.00,East,84,10.7,-999.0,32,0.00,,,-99.99,,2013-05-14 11:20:00,
2013-05-14 03:25:00,37.2,10.8,0.00,East,82,8.8,-999.0,33,0.00,,,-99.99,,2013-05-14 11:25:00,
2013-05-14 03:30:00,36.8,12.3,0.00,ENE,65,8.7,-999.0,35,0.00,,,-99.99,,2013-05-14 11:30:00,
2013-05-14 03:35:00,36.6,12.2,0.00,ENE,75,14.6,-999.0,35,0.00,,,-99.99,,2013-05-14 11:35:00,
2013-05-14 03:40:00,36.4,13.8,0.00,NE,55,15.7,-999.0,39,0.00,,,-99.99,,2013-05-14 11:40:00,
2013-05-14 03:45:00,36.5,12.9,0.00,ENE,78,14.5,-999.0,37,0.00,,,-99.99,,2013-05-14 11:45:00,
2013-05-14 03:50:00,36.2,13.2,0.00,ENE,78,14.5,-999.0,38,0.00,,,-99.99,,2013-05-14 11:50:00,
2013-05-14 03:56:00,36.3,13.2,0.00,ENE,77,13.7,-999.0,38,0.00,,,-99.99,,2013-05-14 11:56:00,
2013-05-14 04:01:00,36.6,12.4,0.00,East,79,11.8,-999.0,36,0.00,,,-99.99,,2013-05-14 12:01:00,
2013-05-14 04:06:00,36.6,12.5,0.00,East,86,11.6,-999.0,36,0.00,,,-99.99,,2013-05-14 12:06:00,
2013-05-14 04:11:00,36.0,13.5,0.00,East,92,11.7,-999.0,39,0.00,,,-99.99,,2013-05-14 12:11:00,
2013-05-14 04:18:00,36.4,12.4,0.00,ENE,73,11.5,-999.0,36,0.00,,,-99.99,,2013-05-14 12:18:00,
2013-05-14 04:23:00,36.4,12.1,0.00,East,87,10.9,-999.0,36,0.00,,,-99.99,,2013-05-14 12:23:00,
2013-05-14 04:28:00,36.3,11.9,0.00,East,88,12.1,-999.0,35,0.00,,,-99.99,,2013-05-14 12:28:00,
2013-05-14 04:33:00,36.2,12.6,0.00,East,81,9.5,-999.0,37,0.00,,,-99.99,,2013-05-14 12:33:00,
2013-05-14 04:38:00,36.4,12.8,0.00,ENE,72,12.0,-999.0,37,0.00,,,-99.99,,2013-05-14 12:38:00,
2013-05-14 04:43:00,36.7,12.5,0.00,East,81,11.0,-999.0,36,0.00,,,-99.99,,2013-05-14 12:43:00,
2013-05-14 04:48:00,36.4,12.7,0.00,East,86,12.6,-999.0,37,0.00,,,-99.99,,2013-05-14 12:48:00,
2013-05-14 04:53:00,36.7,12.6,0.00,ESE,109,10.2,-999.0,36,0.00,,,-99.99,,2013-05-14 12:53:00,
2013-05-14 04:58:00,36.2,12.8,0.00,East,93,9.3,-999.0,37,0.00,,,-99.99,,2013-05-14 12:58:00,
2013-05-14 05:03:00,36.2,12.2,0.00,East,91,11.4,-999.0,36,0.00,,,-99.99,,2013-05-14 13:03:00,
2013-05-14 05:08:00,36.4,12.3,0.00,East,82,11.8,-999.0,36,0.00,,,-99.99,,2013-05-14 13:08:00,
2013-05-14 05:13:00,36.4,12.0,0.00,East,85,11.1,-999.0,36,0.00,,,-99.99,,2013-05-14 13:13:00,
2013-05-14 05:18:00,36.4,12.2,0.00,East,86,13.1,-999.0,36,0.00,,,-99.99,,2013-05-14 13:18:00,
2013-05-14 05:23:00,36.3,12.5,0.00,ENE,69,11.8,-999.0,37,0.00,,,-99.99,,2013-05-14 13:23:00,
2013-05-14 05:28:00,36.1,13.1,0.00,East,83,10.1,-999.0,38,0.00,,,-99.99,,2013-05-14 13:28:00,
2013-05-14 05:33:00,36.1,12.4,0.00,East,81,12.0,-999.0,37,0.00,,,-99.99,,2013-05-14 13:33:00,
2013-05-14 05:38:00,35.6,13.3,0.00,East,87,10.0,-999.0,39,0.00,,,-99.99,,2013-05-14 13:38:00,
2013-05-14 05:43:00,35.9,13.4,0.00,East,84,10.5,-999.0,39,0.00,,,-99.99,,2013-05-14 13:43:00,
2013-05-14 05:48:00,36.2,13.8,0.00,East,92,8.8,-999.0,39,0.00,,,-99.99,,2013-05-14 13:48:00,
2013-05-14 05:53:00,35.8,14.4,0.00,ESE,104,6.0,-999.0,41,0.00,,,-99.99,,2013-05-14 13:53:00,
2013-05-14 05:58:00,35.8,14.4,0.00,ESE,107,7.8,-999.0,41,0.00,,,-99.99,,2013-05-14 13:58:00,
2013-05-14 06:03:00,35.9,14.5,0.00,East,90,11.4,-999.0,41,0.00,,,-99.99,,2013-05-14 14:03:00,
2013-05-14 06:08:00,35.7,14.4,0.00,East,100,9.5,-999.0,41,0.00,,,-99.99,,2013-05-14 14:08:00,
2013-05-14 06:13:00,36.1,14.3,0.00,ESE,107,10.5,-999.0,40,0.00,,,-99.99,,2013-05-14 14:13:00,
2013-05-14 06:18:00,36.4,13.7,0.00,East,94,11.4,-999.0,38,0.00,,,-99.99,,2013-05-14 14:18:00,
2013-05-14 06:23:00,36.1,13.6,0.00,East,91,12.1,-999.0,38,0.00,,,-99.99,,2013-05-14 14:23:00,
2013-05-14 06:28:00,36.0,13.7,0.00,East,100,10.6,-999.0,39,0.00,,,-99.99,,2013-05-14 14:28:00,
2013-05-14 06:33:00,36.0,13.9,0.00,ESE,110,10.9,-999.0,39,0.00,,,-99.99,,2013-05-14 14:33:00,
2013-05-14 06:38:00,36.0,13.8,0.00,ESE,110,11.0,-999.0,39,0.00,,,-99.99,,2013-05-14 14:38:00,
2013-05-14 06:43:00,36.1,13.5,0.00,ESE,102,11.4,-999.0,38,0.00,,,-99.99,,2013-05-14 14:43:00,
2013-05-14 06:48:00,35.8,13.6,0.00,ESE,102,10.2,-999.0,39,0.00,,,-99.99,,2013-05-14 14:48:00,
2013-05-14 06:53:00,36.0,13.3,0.00,East,87,12.5,-999.0,38,0.00,,,-99.99,,2013-05-14 14:53:00,
2013-05-14 06:58:00,35.7,13.4,0.00,East,83,10.0,-999.0,39,0.00,,,-99.99,,2013-05-14 14:58:00,
2013-05-14 07:03:00,36.3,13.2,0.00,East,82,9.1,-999.0,38,0.00,,,-99.99,,2013-05-14 15:03:00,
2013-05-14 07:08:00,36.8,13.0,0.00,East,80,8.3,-999.0,37,0.00,,,-99.99,,2013-05-14 15:08:00,
2013-05-14 07:13:00,37.2,13.7,0.00,ENE,67,5.6,-999.0,37,0.00,,,-99.99,,2013-05-14 15:13:00,
2013-05-14 07:18:00,37.2,13.7,0.00,ENE,69,4.9,-999.0,37,0.00,,,-99.99,,2013-05-14 15:18:00,
2013-05-14 07:23:00,36.9,13.8,0.00,ENE,77,4.8,-999.0,38,0.00,,,-99.99,,2013-05-14 15:23:00,
2013-05-14 07:28:00,37.2,14.9,0.00,SE,125,2.6,-999.0,39,0.00,,,-99.99,,2013-05-14 15:28:00,
2013-05-14 07:33:00,37.7,15.2,0.00,SSE,162,1.4,-999.0,39,0.00,,,-99.99,,2013-05-14 15:33:00,
2013-05-14 07:38:00,38.0,14.3,0.00,East,81,1.3,-999.0,37,0.00,,,-99.99,,2013-05-14 15:38:00,
2013-05-14 07:43:00,37.8,13.7,0.00,East,82,2.6,-999.0,36,0.00,,,-99.99,,2013-05-14 15:43:00,
2013-05-14 07:48:00,38.3,15.4,0.00,ESE,123,2.1,-999.0,38,0.00,,,-99.99,,2013-05-14 15:48:00,
2013-05-14 07:53:00,37.5,13.5,0.00,ESE,116,3.2,-999.0,36,0.00,,,-99.99,,2013-05-14 15:53:00,
2013-05-14 07:58:00,38.1,14.2,0.00,SE,146,2.1,-999.0,37,0.00,,,-99.99,,2013-05-14 15:58:00,
2013-05-14 08:03:00,38.4,13.6,0.00,SSE,163,0.8,-999.0,35,0.00,,,-99.99,,2013-05-14 16:03:00,
2013-05-14 08:08:00,39.3,13.5,0.00,ENE,62,1.4,-999.0,34,0.00,,,-99.99,,2013-05-14 16:08:00,
2013-05-14 08:13:00,38.7,13.7,0.00,NE,45,1.5,-999.0,35,0.00,,,-99.99,,2013-05-14 16:13:00,
2013-05-14 08:18:00,38.5,14.1,0.00,NNE,26,2.1,-999.0,36,0.00,,,-99.99,,2013-05-14 16:18:00,
2013-05-14 08:23:00,38.7,14.3,0.00,NNE,18,0.5,-999.0,36,0.00,,,-99.99,,2013-05-14 16:23:00,
2013-05-14 08:28:00,39.8,16.5,0.00,NNE,23,0.6,-999.0,38,0.00,,,-99.99,,2013-05-14 16:28:00,
2013-05-14 08:33:00,39.9,17.3,0.00,SE,125,1.0,-999.0,39,0.00,,,-99.99,,2013-05-14 16:33:00,
2013-05-14 08:38:00,39.5,18.3,0.00,WNW,294,2.5,-999.0,42,0.00,,,-99.99,,2013-05-14 16:38:00,
2013-05-14 08:43:00,39.8,19.8,0.00,WNW,302,2.9,-999.0,44,0.00,,,-99.99,,2013-05-14 16:43:00,
2013-05-14 08:48:00,39.7,19.7,0.00,North,0,1.3,-999.0,44,0.00,,,-99.99,,2013-05-14 16:48:00,
2013-05-14 08:53:00,39.0,19.7,0.00,NNW,346,1.4,-999.0,45,0.00,,,-99.99,,2013-05-14 16:53:00,
2013-05-14 08:58:00,39.8,20.1,0.00,NW,317,3.7,-999.0,44,0.00,,,-99.99,,2013-05-14 16:58:00,
2013-05-14 09:03:00,38.9,18.5,0.00,West,275,5.0,-999.0,43,0.00,,,-99.99,,2013-05-14 17:03:00,
2013-05-14 09:08:00,40.0,17.9,0.00,NW,311,5.6,-999.0,40,0.00,,,-99.99,,2013-05-14 17:08:00,
2013-05-14 09:13:00,40.4,18.5,0.00,NNW,327,1.0,-999.0,40,0.00,,,-99.99,,2013-05-14 17:13:00,
2013-05-14 09:18:00,40.2,18.4,0.00,West,276,3.6,-999.0,41,0.00,,,-99.99,,2013-05-14 17:18:00,
2013-05-14 09:23:00,40.1,20.9,0.00,West,259,4.7,-999.0,45,0.00,,,-99.99,,2013-05-14 17:23:00,
2013-05-14 09:28:00,39.9,19.4,0.00,WNW,285,5.2,-999.0,43,0.00,,,-99.99,,2013-05-14 17:28:00,
2013-05-14 09:33:00,39.3,18.9,0.00,NNW,341,2.3,-999.0,43,0.00,,,-99.99,,2013-05-14 17:33:00,
2013-05-14 09:38:00,39.5,20.0,0.00,NNE,20,1.5,-999.0,45,0.00,,,-99.99,,2013-05-14 17:38:00,
2013-05-14 09:43:00,39.6,17.6,0.00,NNE,24,3.1,-999.0,40,0.00,,,-99.99,,2013-05-14 17:43:00,
2013-05-14 09:48:00,39.8,18.9,0.00,North,5,5.1,-999.0,42,0.00,,,-99.99,,2013-05-14 17:48:00,
2013-05-14 09:53:00,39.0,18.4,0.00,NNE,27,2.8,-999.0,42,0.00,,,-99.99,,2013-05-14 17:53:00,
2013-05-14 09:58:00,40.1,23.0,0.00,WNW,293,2.4,-999.0,50,0.00,,,-99.99,,2013-05-14 17:58:00,
2013-05-14 10:03:00,38.9,18.9,0.00,NE,54,8.8,-999.0,44,0.00,,,-99.99,,2013-05-14 18:03:00,
2013-05-14 10:08:00,38.1,18.6,0.00,ENE,58,5.1,-999.0,44,0.00,,,-99.99,,2013-05-14 18:08:00,
2013-05-14 10:13:00,38.1,18.9,0.00,NE,40,6.6,-999.0,45,0.00,,,-99.99,,2013-05-14 18:13:00,
2013-05-14 10:18:00,38.4,20.8,0.00,East,82,5.3,-999.0,48,0.00,,,-99.99,,2013-05-14 18:18:00,
2013-05-14 10:23:00,38.3,19.7,0.00,ENE,69,6.5,-999.0,46,0.00,,,-99.99,,2013-05-14 18:23:00,
2013-05-14 10:28:00,38.6,20.6,0.00,NE,49,1.7,-999.0,47,0.00,,,-99.99,,2013-05-14 18:28:00,
2013-05-14 10:33:00,39.2,19.7,0.00,East,82,4.7,-999.0,45,0.00,,,-99.99,,2013-05-14 18:33:00,
2013-05-14 10:38:00,38.7,19.9,0.00,North,7,2.3,-999.0,46,0.00,,,-99.99,,2013-05-14 18:38:00,
2013-05-14 10:43:00,39.3,21.0,0.00,East,91,7.4,-999.0,47,0.00,,,-99.99,,2013-05-14 18:43:00,
2013-05-14 10:48:00,39.3,19.9,0.00,NE,52,3.8,-999.0,45,0.00,,,-99.99,,2013-05-14 18:48:00,
2013-05-14 10:53:00,39.0,21.3,0.00,North,0,2.5,-999.0,48,0.00,,,-99.99,,2013-05-14 18:53:00,
2013-05-14 10:59:00,39.0,20.4,0.00,NE,44,5.6,-999.0,46,0.00,,,-99.99,,2013-05-14 18:59:00,
2013-05-14 11:04:00,39.9,21.6,0.00,NNE,18,4.2,-999.0,47,0.00,,,-99.99,,2013-05-14 19:04:00,
2013-05-14 11:09:00,39.0,20.2,0.00,ENE,60,2.8,-999.0,46,0.00,,,-99.99,,2013-05-14 19:09:00,
2013-05-14 11:14:00,39.0,19.5,0.00,NE,45,7.8,-999.0,44,0.00,,,-99.99,,2013-05-14 19:14:00,
2013-05-14 11:19:00,39.1,20.4,0.00,NE,51,7.5,-999.0,46,0.00,,,-99.99,,2013-05-14 19:19:00,
2013-05-14 11:24:00,38.9,20.2,0.00,ENE,60,5.5,-999.0,46,0.00,,,-99.99,,2013-05-14 19:24:00,
2013-05-14 11:29:00,39.1,19.4,0.00,NE,47,5.3,-999.0,44,0.00,,,-99.99,,2013-05-14 19:29:00,
2013-05-14 11:34:00,39.6,18.5,0.00,NE,38,4.2,-999.0,42,0.00,,,-99.99,,2013-05-14 19:34:00,
2013-05-14 11:39:00,40.0,18.7,0.00,ENE,63,1.5,-999.0,41,0.00,,,-99.99,,2013-05-14 19:39:00,
2013-05-14 11:44:00,39.8,18.4,0.00,ENE,71,7.5,-999.0,41,0.00,,,-99.99,,2013-05-14 19:44:00,
2013-05-14 11:49:00,39.8,19.1,0.00,SSE,152,5.9,-999.0,43,0.00,,,-99.99,,2013-05-14 19:49:00,
2013-05-14 11:54:00,40.1,18.5,0.00,ENE,60,2.4,-999.0,41,0.00,,,-99.99,,2013-05-14 19:54:00,
2013-05-14 11:59:00,40.3,18.8,0.00,SE,132,3.7,-999.0,41,0.00,,,-99.99,,2013-05-14 19:59:00,
2013-05-14 12:04:00,40.0,19.8,0.00,NE,56,2.9,-999.0,43,0.00,,,-99.99,,2013-05-14 20:04:00,
2013-05-14 12:09:00,40.4,21.4,0.00,NE,41,4.4,-999.0,46,0.00,,,-99.99,,2013-05-14 20:09:00,
2013-05-14 12:14:00,41.3,22.5,0.00,SE,134,3.5,-999.0,46,0.00,,,-99.99,,2013-05-14 20:14:00,
2013-05-14 12:19:00,42.1,21.3,0.00,SSE,157,3.2,-999.0,43,0.00,,,-99.99,,2013-05-14 20:19:00,
2013-05-14 12:24:00,41.5,23.7,0.00,SSW,203,8.1,-999.0,49,0.00,,,-99.99,,2013-05-14 20:24:00,
2013-05-14 12:29:00,42.1,21.9,0.00,South,179,1.7,-999.0,44,0.00,,,-99.99,,2013-05-14 20:29:00,
2013-05-14 12:34:00,41.3,17.6,0.00,East,96,0.2,-999.0,38,0.00,,,-99.99,,2013-05-14 20:34:00,
2013-05-14 12:40:00,41.6,21.4,0.00,South,170,2.8,-999.0,44,0.00,,,-99.99,,2013-05-14 20:40:00,
2013-05-14 12:45:00,41.8,21.4,0.00,SE,136,4.1,-999.0,43,0.00,,,-99.99,,2013-05-14 20:45:00,
2013-05-14 12:50:00,41.2,21.6,0.00,West,263,1.0,-999.0,45,0.00,,,-99.99,,2013-05-14 20:50:00,
2013-05-14 12:55:00,42.5,21.2,0.00,SE,132,3.7,-999.0,42,0.00,,,-99.99,,2013-05-14 20:55:00,
2013-05-14 13:00:00,42.4,21.6,0.00,SSE,163,4.9,-999.0,43,0.00,,,-99.99,,2013-05-14 21:00:00,
2013-05-14 13:05:00,41.2,19.6,0.00,SE,144,2.5,-999.0,41,0.00,,,-99.99,,2013-05-14 21:05:00,
2013-05-14 13:10:00,41.7,18.4,0.00,ESE,115,4.3,-999.0,38,0.00,,,-99.99,,2013-05-14 21:10:00,
2013-05-14 13:15:00,41.9,23.3,0.00,SSE,147,0.1,-999.0,47,0.00,,,-99.99,,2013-05-14 21:15:00,
2013-05-14 13:20:00,41.4,19.4,0.00,South,174,4.1,-999.0,40,0.00,,,-99.99,,2013-05-14 21:20:00,
2013-05-14 13:25:00,41.5,19.7,0.00,SE,130,5.4,-999.0,41,0.00,,,-99.99,,2013-05-14 21:25:00,
2013-05-14 13:30:00,42.3,22.0,0.00,NE,51,0.1,-999.0,43,0.00,,,-99.99,,2013-05-14 21:30:00,
2013-05-14 13:35:00,41.8,20.0,0.00,NE,55,2.6,-999.0,41,0.00,,,-99.99,,2013-05-14 21:35:00,
2013-05-14 13:40:00,41.6,21.0,0.00,NE,47,5.9,-999.0,43,0.00,,,-99.99,,2013-05-14 21:40:00,
2013-05-14 13:45:00,41.8,22.9,0.00,NE,42,0.1,-999.0,46,0.00,,,-99.99,,2013-05-14 21:45:00,
2013-05-14 13:50:00,42.2,21.5,0.00,North,350,1.0,-999.0,43,0.00,,,-99.99,,2013-05-14 21:50:00,
2013-05-14 13:55:00,42.6,21.0,0.00,North,0,1.4,-999.0,41,0.00,,,-99.99,,2013-05-14 21:55:00,
2013-05-14 14:00:00,42.2,21.5,0.00,SE,135,0.0,-999.0,43,0.00,,,-99.99,,2013-05-14 22:00:00,
2013-05-14 14:05:00,43.2,23.4,0.00,NE,35,4.2,-999.0,45,0.00,,,-99.99,,2013-05-14 22:05:00,
2013-05-14 14:10:00,43.2,22.1,0.00,East,91,1.5,-999.0,42,0.00,,,-99.99,,2013-05-14 22:10:00,
2013-05-14 14:15:00,42.9,25.0,0.00,ENE,61,0.9,-999.0,48,0.00,,,-99.99,,2013-05-14 22:15:00,
2013-05-14 14:20:00,43.3,25.6,0.00,South,179,2.3,-999.0,49,0.00,,,-99.99,,2013-05-14 22:20:00,
2013-05-14 14:25:00,44.1,25.0,0.00,NE,44,1.5,-999.0,46,0.00,,,-99.99,,2013-05-14 22:25:00,
2013-05-14 14:31:00,44.8,27.4,0.00,WNW,302,2.6,-999.0,50,0.00,,,-99.99,,2013-05-14 22:31:00,
2013-05-14 14:36:00,44.6,26.5,0.00,SSW,202,3.5,-999.0,48,0.00,,,-99.99,,2013-05-14 22:36:00,
2013-05-14 14:41:00,44.3,27.1,0.00,North,352,2.4,-999.0,50,0.00,,,-99.99,,2013-05-14 22:41:00,
2013-05-14 14:46:00,44.3,28.6,0.00,NNW,344,1.5,-999.0,53,0.00,,,-99.99,,2013-05-14 22:46:00,
2013-05-14 14:51:00,45.8,28.1,0.00,North,353,6.5,-999.0,49,0.00,,,-99.99,,2013-05-14 22:51:00,
2013-05-14 14:56:00,43.5,25.2,0.00,NW,312,7.9,-999.0,48,0.00,,,-99.99,,2013-05-14 22:56:00,
2013-05-14 15:01:00,43.8,24.6,0.00,NW,310,9.6,-999.0,46,0.00,,,-99.99,,2013-05-14 23:01:00,
2013-05-14 15:06:00,43.7,27.4,0.00,West,259,4.8,-999.0,52,0.00,,,-99.99,,2013-05-14 23:06:00,
2013-05-14 15:11:00,45.5,28.1,0.00,NNE,20,0.3,-999.0,50,0.00,,,-99.99,,2013-05-14 23:11:00,
2013-05-14 15:16:00,44.5,25.8,0.00,WSW,251,8.6,-999.0,47,0.00,,,-99.99,,2013-05-14 23:16:00,
2013-05-14 15:21:00,44.6,27.8,0.00,SE,133,0.8,-999.0,51,0.00,,,-99.99,,2013-05-14 23:21:00,
2013-05-14 15:26:00,43.5,27.9,0.00,WSW,257,5.2,-999.0,53,0.00,,,-99.99,,2013-05-14 23:26:00,
2013-05-14 15:31:00,43.2,29.7,0.00,SE,130,1.5,-999.0,58,0.00,,,-99.99,,2013-05-14 23:31:00,
2013-05-14 15:36:00,44.3,29.5,0.00,SE,134,0.6,-999.0,55,0.00,,,-99.99,,2013-05-14 23:36:00,
2013-05-14 15:41:00,44.4,28.9,0.00,NE,36,3.5,-999.0,54,0.00,,,-99.99,,2013-05-14 23:41:00,
2013-05-14 15:46:00,43.7,29.4,0.00,East,97,0.6,-999.0,56,0.00,,,-99.99,,2013-05-14 23:46:00,
2013-05-14 15:51:00,44.6,29.9,0.00,SSE,164,0.7,-999.0,56,0.00,,,-99.99,,2013-05-14 23:51:00,
2013-05-14 15:56:00,43.9,29.5,0.00,WNW,296,5.7,-999.0,56,0.00,,,-99.99,,2013-05-14 23:56:00,
2013-05-14 16:01:00,40.5,28.3,0.00,NW,309,9.6,-999.0,61,0.00,,,-99.99,,2013-05-15 00:01:00,
2013-05-14 16:06:00,41.3,29.7,0.00,WNW,284,7.2,-999.0,63,0.00,,,-99.99,,2013-05-15 00:06:00,
2013-05-14 16:11:00,41.8,28.6,0.00,SW,227,0.8,-999.0,59,0.00,,,-99.99,,2013-05-15 00:11:00,
2013-05-14 16:16:00,41.8,30.0,0.00,WNW,295,11.2,-999.0,62,0.00,,,-99.99,,2013-05-15 00:16:00,
2013-05-14 16:21:00,40.9,31.3,0.00,NW,325,3.5,-999.0,68,0.00,,,-99.99,,2013-05-15 00:21:00,
2013-05-14 16:26:00,41.9,30.3,0.00,NNW,348,2.4,-999.0,63,0.00,,,-99.99,,2013-05-15 00:26:00,
2013-05-14 16:31:00,41.4,31.2,0.00,WSW,249,5.3,-999.0,67,0.00,,,-99.99,,2013-05-15 00:31:00,
2013-05-14 16:36:00,42.3,30.7,0.00,NW,306,7.2,-999.0,63,0.00,,,-99.99,,2013-05-15 00:36:00,
2013-05-14 16:41:00,42.0,31.3,0.00,SW,235,4.9,-999.0,65,0.00,,,-99.99,,2013-05-15 00:41:00,
2013-05-14 16:46:00,42.3,31.3,0.00,WNW,283,10.7,-999.0,64,0.00,,,-99.99,,2013-05-15 00:46:00,
2013-05-14 16:51:00,42.0,31.7,0.00,NE,39,1.0,-999.0,66,0.00,,,-99.99,,2013-05-15 00:51:00,
2013-05-14 16:56:00,41.9,31.5,0.00,ESE,120,2.2,-999.0,66,0.00,,,-99.99,,2013-05-15 00:56:00,
2013-05-14 17:01:00,42.4,31.9,0.00,SSW,195,0.3,-999.0,65,0.00,,,-99.99,,2013-05-15 01:01:00,
2013-05-14 17:06:00,41.8,32.6,0.00,NW,308,1.2,-999.0,69,0.00,,,-99.99,,2013-05-15 01:06:00,
2013-05-14 17:11:00,42.2,32.2,0.00,ENE,60,1.8,-999.0,67,0.00,,,-99.99,,2013-05-15 01:11:00,
2013-05-14 17:16:00,42.1,31.8,0.00,SE,143,1.9,-999.0,66,0.00,,,-99.99,,2013-05-15 01:16:00,
2013-05-14 17:21:00,42.1,32.4,0.00,NE,43,0.6,-999.0,68,0.00,,,-99.99,,2013-05-15 01:21:00,
2013-05-14 17:26:00,42.6,32.8,0.00,WNW,303,2.5,-999.0,68,0.00,,,-99.99,,2013-05-15 01:26:00,
2013-05-14 17:31:00,41.9,31.8,0.00,NNW,331,2.5,-999.0,67,0.00,,,-99.99,,2013-05-15 01:31:00,
2013-05-14 17:36:00,42.1,32.5,0.00,West,272,0.4,-999.0,68,0.00,,,-99.99,,2013-05-15 01:36:00,
2013-05-14 17:41:00,41.6,32.1,0.00,NNW,340,1.0,-999.0,68,0.00,,,-99.99,,2013-05-15 01:41:00,
2013-05-14 17:46:00,41.2,30.5,0.00,WNW,290,6.0,-999.0,65,0.00,,,-99.99,,2013-05-15 01:46:00,
2013-05-14 17:51:00,41.6,30.8,0.00,SW,223,3.4,-999.0,65,0.00,,,-99.99,,2013-05-15 01:51:00,
2013-05-14 17:56:00,41.0,32.0,0.00,SSW,202,0.1,-999.0,70,0.00,,,-99.99,,2013-05-15 01:56:00,
2013-05-14 18:01:00,41.7,30.5,0.00,WNW,297,8.2,-999.0,64,0.00,,,-99.99,,2013-05-15 02:01:00,
2013-05-14 18:06:00,41.1,30.6,0.00,WNW,285,2.2,-999.0,66,0.00,,,-99.99,,2013-05-15 02:06:00,
2013-05-14 18:11:00,40.8,29.8,0.00,West,266,7.3,-999.0,64,0.00,,,-99.99,,2013-05-15 02:11:00,
2013-05-14 18:16:00,40.6,29.8,0.00,NNE,25,4.3,-999.0,64,0.00,,,-99.99,,2013-05-15 02:16:00,
2013-05-14 18:21:00,41.5,30.9,0.00,NNW,348,1.1,-999.0,65,0.00,,,-99.99,,2013-05-15 02:21:00,
2013-05-14 18:26:00,40.9,29.1,0.00,NW,316,2.5,-999.0,62,0.00,,,-99.99,,2013-05-15 02:26:00,
2013-05-14 18:31:00,40.2,28.1,0.00,NW,308,5.3,-999.0,61,0.00,,,-99.99,,2013-05-15 02:31:00,
2013-05-14 18:36:00,39.9,29.5,0.00,West,267,2.7,-999.0,66,0.00,,,-99.99,,2013-05-15 02:36:00,
2013-05-14 18:41:00,41.0,29.7,0.00,West,274,7.0,-999.0,64,0.00,,,-99.99,,2013-05-15 02:41:00,
2013-05-14 18:47:00,40.6,27.9,0.00,WNW,287,4.3,-999.0,60,0.00,,,-99.99,,2013-05-15 02:47:00,
2013-05-14 18:52:00,40.3,27.7,0.00,WSW,250,1.8,-999.0,60,0.00,,,-99.99,,2013-05-15 02:52:00,
2013-05-14 18:57:00,40.2,28.7,0.00,WNW,285,6.6,-999.0,63,0.00,,,-99.99,,2013-05-15 02:57:00,
2013-05-14 19:02:00,39.8,26.7,0.00,West,277,5.0,-999.0,59,0.00,,,-99.99,,2013-05-15 03:02:00,
2013-05-14 19:07:00,38.9,26.0,0.00,WNW,295,4.6,-999.0,59,0.00,,,-99.99,,2013-05-15 03:07:00,
2013-05-14 19:12:00,39.1,26.1,0.00,West,278,2.6,-999.0,59,0.00,,,-99.99,,2013-05-15 03:12:00,
2013-05-14 19:17:00,39.2,25.4,0.00,WNW,298,4.0,-999.0,57,0.00,,,-99.99,,2013-05-15 03:17:00,
2013-05-14 19:22:00,38.8,26.1,0.00,NW,317,1.5,-999.0,60,0.00,,,-99.99,,2013-05-15 03:22:00,
2013-05-14 19:27:00,38.9,27.0,0.00,NNW,330,2.1,-999.0,62,0.00,,,-99.99,,2013-05-15 03:27:00,
2013-05-14 19:32:00,39.5,25.7,0.00,NW,324,3.5,-999.0,57,0.00,,,-99.99,,2013-05-15 03:32:00,
2013-05-14 19:37:00,39.7,22.6,0.00,NNW,327,1.4,-999.0,50,0.00,,,-99.99,,2013-05-15 03:37:00,
2013-05-14 19:42:00,40.8,21.7,0.00,SSE,167,4.2,-999.0,46,0.00,,,-99.99,,2013-05-15 03:42:00,
2013-05-14 19:47:00,41.4,18.9,0.00,East,94,4.4,-999.0,39,0.00,,,-99.99,,2013-05-15 03:47:00,
2013-05-14 19:52:00,41.0,16.5,0.00,ESE,120,6.1,-999.0,36,0.00,,,-99.99,,2013-05-15 03:52:00,
2013-05-14 19:57:00,41.8,20.0,0.00,East,80,2.8,-999.0,41,0.00,,,-99.99,,2013-05-15 03:57:00,
2013-05-14 20:02:00,41.4,17.4,0.00,SE,139,8.9,-999.0,37,0.00,,,-99.99,,2013-05-15 04:02:00,
2013-05-14 20:07:00,40.5,16.8,0.00,SE,141,6.6,-999.0,37,0.00,,,-99.99,,2013-05-15 04:07:00,
2013-05-14 20:08:00,40.5,16.2,0.00,SE,126,7.1,-999.0,36,0.00,,,-99.99,,2013-05-15 04:08:00,
2013-05-14 20:09:00,40.6,17.2,0.00,East,93,3.1,-999.0,38,0.00,,,-99.99,,2013-05-15 04:09:00,
2013-05-14 20:10:00,40.6,16.7,0.00,SE,142,6.1,-999.0,37,0.00,,,-99.99,,2013-05-15 04:10:00,
2013-05-14 20:14:00,40.4,16.5,0.00,SE,135,8.3,-999.0,37,0.00,,,-99.99,,2013-05-15 04:14:00,
2013-05-14 20:19:00,39.9,16.7,0.00,ESE,121,7.2,-999.0,38,0.00,,,-99.99,,2013-05-15 04:19:00,
2013-05-14 20:25:00,39.9,16.5,0.00,ESE,121,5.9,-999.0,38,0.00,,,-99.99,,2013-05-15 04:25:00,
2013-05-14 20:30:00,40.1,16.5,0.00,ESE,110,4.2,-999.0,38,0.00,,,-99.99,,2013-05-15 04:30:00,
2013-05-14 20:35:00,40.5,16.5,0.00,ESE,118,3.8,-999.0,37,0.00,,,-99.99,,2013-05-15 04:35:00,
2013-05-14 20:40:00,39.8,16.8,0.00,SE,126,6.0,-999.0,38,0.00,,,-99.99,,2013-05-15 04:40:00,
2013-05-14 20:45:00,40.3,16.6,0.00,East,94,3.6,-999.0,37,0.00,,,-99.99,,2013-05-15 04:45:00,
2013-05-14 20:50:00,40.0,17.4,0.00,East,93,1.9,-999.0,39,0.00,,,-99.99,,2013-05-15 04:50:00,
2013-05-14 20:57:00,40.1,17.3,0.00,East,92,3.0,-999.0,39,0.00,,,-99.99,,2013-05-15 04:57:00,
2013-05-14 21:02:00,39.6,17.1,0.00,SE,133,4.8,-999.0,39,0.00,,,-99.99,,2013-05-15 05:02:00,
2013-05-14 21:07:00,39.5,16.3,0.00,East,96,5.1,-999.0,38,0.00,,,-99.99,,2013-05-15 05:07:00,
2013-05-14 21:12:00,39.7,17.1,0.00,ESE,123,1.8,-999.0,39,0.00,,,-99.99,,2013-05-15 05:12:00,
2013-05-14 21:17:00,39.7,17.0,0.00,ESE,103,2.7,-999.0,39,0.00,,,-99.99,,2013-05-15 05:17:00,
2013-05-14 21:22:00,39.5,17.1,0.00,East,99,3.5,-999.0,39,0.00,,,-99.99,,2013-05-15 05:22:00,
2013-05-14 21:28:00,38.8,17.9,0.00,East,80,3.9,-999.0,42,0.00,,,-99.99,,2013-05-15 05:28:00,
2013-05-14 21:33:00,38.5,18.2,0.00,East,87,5.2,-999.0,43,0.00,,,-99.99,,2013-05-15 05:33:00,
2013-05-14 21:38:00,38.3,18.3,0.00,East,101,5.4,-999.0,44,0.00,,,-99.99,,2013-05-15 05:38:00,
2013-05-14 21:43:00,37.9,18.6,0.00,East,89,6.4,-999.0,45,0.00,,,-99.99,,2013-05-15 05:43:00,
2013-05-14 21:48:00,37.7,18.8,0.00,East,88,6.5,-999.0,45,0.00,,,-99.99,,2013-05-15 05:48:00,
2013-05-14 21:53:00,37.8,18.4,0.00,East,89,5.0,-999.0,45,0.00,,,-99.99,,2013-05-15 05:53:00,
2013-05-14 21:58:00,37.5,18.5,0.00,East,91,5.7,-999.0,45,0.00,,,-99.99,,2013-05-15 05:58:00,
2013-05-14 22:03:00,37.8,19.0,0.00,East,94,5.7,-999.0,46,0.00,,,-99.99,,2013-05-15 06:03:00,
2013-05-14 22:08:00,37.5,19.3,0.00,East,94,4.9,-999.0,47,0.00,,,-99.99,,2013-05-15 06:08:00,
2013-05-14 22:14:00,37.4,19.8,0.00,SE,134,4.5,-999.0,48,0.00,,,-99.99,,2013-05-15 06:14:00,
2013-05-14 22:19:00,37.3,19.7,0.00,SE,124,3.0,-999.0,48,0.00,,,-99.99,,2013-05-15 06:19:00,
2013-05-14 22:24:00,37.3,20.1,0.00,ESE,121,4.8,-999.0,49,0.00,,,-99.99,,2013-05-15 06:24:00,
2013-05-14 22:29:00,37.3,19.9,0.00,ESE,121,5.6,-999.0,49,0.00,,,-99.99,,2013-05-15 06:29:00,
2013-05-14 22:34:00,37.3,20.4,0.00,SE,128,5.6,-999.0,50,0.00,,,-99.99,,2013-05-15 06:34:00,
2013-05-14 22:39:00,37.3,20.5,0.00,ESE,112,8.6,-999.0,50,0.00,,,-99.99,,2013-05-15 06:39:00,
2013-05-14 22:44:00,37.5,20.5,0.00,ESE,114,8.3,-999.0,50,0.00,,,-99.99,,2013-05-15 06:44:00,
2013-05-14 22:49:00,37.2,19.9,0.00,ESE,107,8.7,-999.0,49,0.00,,,-99.99,,2013-05-15 06:49:00,
2013-05-14 22:54:00,37.2,19.8,0.00,ESE,109,9.6,-999.0,49,0.00,,,-99.99,,2013-05-15 06:54:00,
2013-05-14 22:59:00,37.2,19.9,0.00,ESE,112,9.7,-999.0,49,0.00,,,-99.99,,2013-05-15 06:59:00,
2013-05-14 23:04:00,37.3,19.5,0.00,ESE,109,9.4,-999.0,48,0.00,,,-99.99,,2013-05-15 07:04:00,
2013-05-14 23:09:00,37.2,18.8,0.00,ESE,106,10.1,-999.0,47,0.00,,,-99.99,,2013-05-15 07:09:00,
2013-05-14 23:14:00,37.2,19.1,0.00,ESE,108,9.8,-999.0,47,0.00,,,-99.99,,2013-05-15 07:14:00,
2013-05-14 23:19:00,37.2,19.0,0.00,East,101,8.4,-999.0,47,0.00,,,-99.99,,2013-05-15 07:19:00,
2013-05-14 23:24:00,37.0,19.0,0.00,East,96,9.4,-999.0,47,0.00,,,-99.99,,2013-05-15 07:24:00,
2013-05-14 23:30:00,36.7,18.9,0.00,East,98,11.5,-999.0,47,0.00,,,-99.99,,2013-05-15 07:30:00,
2013-05-14 23:35:00,36.4,18.9,0.00,East,86,10.1,-999.0,48,0.00,,,-99.99,,2013-05-15 07:35:00,
2013-05-14 23:40:00,36.4,18.6,0.00,East,90,10.5,-999.0,48,0.00,,,-99.99,,2013-05-15 07:40:00,
2013-05-14 23:46:00,36.5,18.6,0.00,East,92,8.6,-999.0,47,0.00,,,-99.99,,2013-05-15 07:46:00,
2013-05-14 23:52:00,36.5,18.2,0.00,ESE,112,5.7,-999.0,47,0.00,,,-99.99,,2013-05-15 07:52:00,
2013-05-14 23:57:00,36.7,18.3,0.00,East,84,2.9,-999.0,46,0.00,,,-99.99,,2013-05-15 07:57:00,